Year,Month,Day,Hour,Minute,Value (Times are PST for temperature in C)
2016,06,08,00,01,16.70
2016,06,08,00,02,16.70
2016,06,08,00,03,16.60
2016,06,08,00,04,16.60
2016,06,08,00,06,16.60
2016,06,08,00,07,16.60
2016,06,08,00,09,16.40
2016,06,08,00,11,16.40
2016,06,08,00,12,16.40
2016,06,08,00,13,16.40
2016,06,08,00,14,16.40
2016,06,08,00,15,16.40
2016,06,08,00,16,16.40
2016,06,08,00,17,16.40
2016,06,08,00,18,16.40
2016,06,08,00,19,16.40
2016,06,08,00,20,16.40
2016,06,08,00,21,16.40
2016,06,08,00,22,16.40
2016,06,08,00,23,16.40
2016,06,08,00,24,16.60
2016,06,08,00,25,16.60
2016,06,08,00,26,16.60
2016,06,08,00,27,16.60
2016,06,08,00,28,16.60
2016,06,08,00,29,16.60
2016,06,08,00,30,16.60
2016,06,08,00,31,16.60
2016,06,08,00,32,16.60
2016,06,08,00,33,16.60
2016,06,08,00,34,16.60
2016,06,08,00,35,16.60
2016,06,08,00,36,16.60
2016,06,08,00,37,16.40
2016,06,08,00,38,16.40
2016,06,08,00,39,16.40
2016,06,08,00,40,16.40
2016,06,08,00,41,16.40
2016,06,08,00,42,16.40
2016,06,08,00,43,16.40
2016,06,08,00,44,16.40
2016,06,08,00,45,16.40
2016,06,08,00,46,16.40
2016,06,08,00,47,16.40
2016,06,08,00,48,16.30
2016,06,08,00,49,16.20
2016,06,08,00,50,16.10
2016,06,08,00,51,15.80
2016,06,08,00,52,15.80
2016,06,08,00,53,15.60
2016,06,08,00,54,15.40
2016,06,08,00,55,15.30
2016,06,08,00,56,15.30
2016,06,08,00,57,15.20
2016,06,08,00,58,15.10
2016,06,08,00,59,15.00
2016,06,08,01,00,15.00
2016,06,08,01,01,15.00
2016,06,08,01,02,14.90
2016,06,08,01,03,14.90
2016,06,08,01,04,14.90
2016,06,08,01,05,14.90
2016,06,08,01,06,14.90
2016,06,08,01,07,14.90
2016,06,08,01,08,14.90
2016,06,08,01,09,14.90
2016,06,08,01,10,15.00
2016,06,08,01,11,15.00
2016,06,08,01,12,15.00
2016,06,08,01,13,15.00
2016,06,08,01,14,15.00
2016,06,08,01,15,15.00
2016,06,08,01,16,15.00
2016,06,08,01,17,15.00
2016,06,08,01,18,15.00
2016,06,08,01,19,15.00
2016,06,08,01,20,15.00
2016,06,08,01,21,15.00
2016,06,08,01,22,14.90
2016,06,08,01,23,14.90
2016,06,08,01,24,14.80
2016,06,08,01,25,14.80
2016,06,08,01,26,14.80
2016,06,08,01,27,14.80
2016,06,08,01,28,14.80
2016,06,08,01,29,14.80
2016,06,08,01,30,14.80
2016,06,08,01,31,14.70
2016,06,08,01,32,14.70
2016,06,08,01,33,14.70
2016,06,08,01,34,14.70
2016,06,08,01,35,14.70
2016,06,08,01,36,14.60
2016,06,08,01,37,14.60
2016,06,08,01,39,14.60
2016,06,08,01,41,14.60
2016,06,08,01,42,14.60
2016,06,08,01,43,14.50
2016,06,08,01,44,14.50
2016,06,08,01,46,14.50
2016,06,08,01,47,14.40
2016,06,08,01,48,14.40
2016,06,08,01,49,14.40
2016,06,08,01,51,14.50
2016,06,08,01,52,14.50
2016,06,08,01,53,14.50
2016,06,08,01,54,14.60
2016,06,08,01,56,14.60
2016,06,08,01,57,14.60
2016,06,08,01,58,14.60
2016,06,08,01,59,14.60
2016,06,08,02,01,14.60
2016,06,08,02,02,14.60
2016,06,08,02,03,14.60
2016,06,08,02,04,14.60
2016,06,08,02,06,14.50
2016,06,08,02,07,14.50
2016,06,08,02,08,14.50
2016,06,08,02,09,14.50
2016,06,08,02,11,14.50
2016,06,08,02,12,14.50
2016,06,08,02,13,14.50
2016,06,08,02,14,14.50
2016,06,08,02,16,14.50
2016,06,08,02,17,14.50
2016,06,08,02,18,14.50
2016,06,08,02,19,14.50
2016,06,08,02,21,14.50
2016,06,08,02,22,14.50
2016,06,08,02,23,14.50
2016,06,08,02,24,14.50
2016,06,08,02,26,14.50
2016,06,08,02,27,14.50
2016,06,08,02,28,14.50
2016,06,08,02,29,14.50
2016,06,08,02,31,14.50
2016,06,08,02,32,14.50
2016,06,08,02,33,14.50
2016,06,08,02,34,14.50
2016,06,08,02,36,14.50
2016,06,08,02,37,14.50
2016,06,08,02,38,14.40
2016,06,08,02,39,14.40
2016,06,08,02,41,14.40
2016,06,08,02,42,14.40
2016,06,08,02,43,14.40
2016,06,08,02,44,14.40
2016,06,08,02,46,14.30
2016,06,08,02,47,14.30
2016,06,08,02,48,14.20
2016,06,08,02,49,14.20
2016,06,08,02,51,14.20
2016,06,08,02,52,14.10
2016,06,08,02,53,14.00
2016,06,08,02,54,14.00
2016,06,08,02,55,13.90
2016,06,08,02,56,13.90
2016,06,08,02,57,13.80
2016,06,08,02,58,13.70
2016,06,08,02,59,13.70
2016,06,08,03,00,13.70
2016,06,08,03,01,13.60
2016,06,08,03,02,13.60
2016,06,08,03,03,13.50
2016,06,08,03,04,13.50
2016,06,08,03,06,13.50
2016,06,08,03,07,13.50
2016,06,08,03,08,13.40
2016,06,08,03,09,13.40
2016,06,08,03,10,13.40
2016,06,08,03,11,13.40
2016,06,08,03,12,13.40
2016,06,08,03,13,13.40
2016,06,08,03,14,13.40
2016,06,08,03,15,13.40
2016,06,08,03,16,13.40
2016,06,08,03,17,13.40
2016,06,08,03,18,13.40
2016,06,08,03,19,13.40
2016,06,08,03,20,13.40
2016,06,08,03,21,13.40
2016,06,08,03,22,13.40
2016,06,08,03,23,13.40
2016,06,08,03,24,13.40
2016,06,08,03,25,13.40
2016,06,08,03,26,13.40
2016,06,08,03,27,13.40
2016,06,08,03,28,13.40
2016,06,08,03,29,13.40
2016,06,08,03,30,13.50
2016,06,08,03,31,13.50
2016,06,08,03,32,13.50
2016,06,08,03,33,13.50
2016,06,08,03,34,13.50
2016,06,08,03,35,13.50
2016,06,08,03,36,13.50
2016,06,08,03,37,13.50
2016,06,08,03,38,13.50
2016,06,08,03,39,13.50
2016,06,08,03,40,13.50
2016,06,08,03,41,13.50
2016,06,08,03,42,13.50
2016,06,08,03,43,13.50
2016,06,08,03,44,13.50
2016,06,08,03,45,13.40
2016,06,08,03,46,13.40
2016,06,08,03,47,13.40
2016,06,08,03,48,13.40
2016,06,08,03,49,13.40
2016,06,08,03,50,13.40
2016,06,08,03,51,13.40
2016,06,08,03,52,13.40
2016,06,08,03,53,13.40
2016,06,08,03,54,13.40
2016,06,08,03,55,13.40
2016,06,08,03,56,13.40
2016,06,08,03,57,13.40
2016,06,08,03,58,13.40
2016,06,08,03,59,13.40
2016,06,08,04,00,13.40
2016,06,08,04,01,13.40
2016,06,08,04,02,13.40
2016,06,08,04,03,13.40
2016,06,08,04,04,13.40
2016,06,08,04,05,13.50
2016,06,08,04,06,13.50
2016,06,08,04,07,13.60
2016,06,08,04,08,13.60
2016,06,08,04,09,13.70
2016,06,08,04,10,13.70
2016,06,08,04,11,13.80
2016,06,08,04,12,13.90
2016,06,08,04,13,13.90
2016,06,08,04,14,14.00
2016,06,08,04,15,14.10
2016,06,08,04,16,14.10
2016,06,08,04,17,14.10
2016,06,08,04,18,14.20
2016,06,08,04,19,14.20
2016,06,08,04,20,14.20
2016,06,08,04,21,14.20
2016,06,08,04,23,14.20
2016,06,08,04,24,14.20
2016,06,08,04,26,14.30
2016,06,08,04,27,14.30
2016,06,08,04,28,14.30
2016,06,08,04,29,14.40
2016,06,08,04,31,14.50
2016,06,08,04,32,14.50
2016,06,08,04,33,14.50
2016,06,08,04,34,14.60
2016,06,08,04,36,14.70
2016,06,08,04,37,14.70
2016,06,08,04,38,14.70
2016,06,08,04,39,14.80
2016,06,08,04,41,14.80
2016,06,08,04,42,14.80
2016,06,08,04,43,14.80
2016,06,08,04,44,14.80
2016,06,08,04,46,14.80
2016,06,08,04,47,14.90
2016,06,08,04,48,14.90
2016,06,08,04,49,14.90
2016,06,08,04,51,14.90
2016,06,08,04,52,14.90
2016,06,08,04,53,14.90
2016,06,08,04,54,14.90
2016,06,08,04,56,14.90
2016,06,08,04,57,14.90
2016,06,08,04,58,15.00
2016,06,08,04,59,15.00
2016,06,08,05,01,15.00
2016,06,08,05,02,15.00
2016,06,08,05,03,15.00
2016,06,08,05,04,15.00
2016,06,08,05,20,15.10
2016,06,08,05,21,15.20
2016,06,08,05,22,15.20
2016,06,08,05,23,15.30
2016,06,08,05,24,15.30
2016,06,08,05,25,15.30
2016,06,08,05,26,15.30
2016,06,08,05,27,15.40
2016,06,08,05,28,15.40
2016,06,08,05,29,15.40
2016,06,08,06,20,15.90
2016,06,08,06,21,15.90
2016,06,08,06,22,15.90
2016,06,08,06,23,16.10
2016,06,08,06,24,16.10
2016,06,08,06,25,16.10
2016,06,08,06,26,16.20
2016,06,08,06,27,16.20
2016,06,08,06,28,16.20
2016,06,08,06,29,16.30
2016,06,08,06,30,16.30
2016,06,08,06,31,16.30
2016,06,08,06,32,16.30
2016,06,08,06,33,16.40
2016,06,08,06,34,16.40
2016,06,08,06,35,16.40
2016,06,08,06,36,16.40
2016,06,08,06,37,16.60
2016,06,08,06,38,16.60
2016,06,08,06,39,16.70
2016,06,08,06,40,16.70
2016,06,08,06,41,16.70
2016,06,08,06,42,16.70
2016,06,08,06,43,16.70
2016,06,08,06,44,16.70
2016,06,08,06,45,16.70
2016,06,08,06,46,16.70
2016,06,08,06,47,16.70
2016,06,08,06,48,16.70
2016,06,08,06,49,16.70
2016,06,08,06,50,16.70
2016,06,08,06,51,16.70
2016,06,08,06,52,16.70
2016,06,08,06,53,16.70
2016,06,08,06,54,16.70
2016,06,08,06,55,16.70
2016,06,08,06,56,16.70
2016,06,08,06,57,16.70
2016,06,08,06,58,16.70
2016,06,08,06,59,16.70
2016,06,08,07,00,16.70
2016,06,08,07,01,16.70
2016,06,08,07,02,16.70
2016,06,08,07,03,16.70
2016,06,08,07,04,16.70
2016,06,08,07,05,16.70
2016,06,08,07,06,16.70
2016,06,08,07,08,16.70
2016,06,08,07,09,16.70
2016,06,08,07,11,16.80
2016,06,08,07,12,16.80
2016,06,08,07,13,16.80
2016,06,08,07,14,16.80
2016,06,08,07,16,16.90
2016,06,08,07,17,16.90
2016,06,08,07,18,16.90
2016,06,08,07,19,16.90
2016,06,08,07,21,16.90
2016,06,08,07,22,16.90
2016,06,08,07,23,17.00
2016,06,08,07,24,17.00
2016,06,08,07,26,17.00
2016,06,08,07,27,17.00
2016,06,08,07,28,17.00
2016,06,08,07,29,17.00
2016,06,08,07,31,16.90
2016,06,08,07,32,16.80
2016,06,08,07,33,16.70
2016,06,08,07,34,16.70
2016,06,08,07,36,16.70
2016,06,08,07,37,16.60
2016,06,08,07,38,16.40
2016,06,08,07,39,16.30
2016,06,08,07,41,16.10
2016,06,08,07,42,15.90
2016,06,08,07,43,15.80
2016,06,08,07,44,15.30
2016,06,08,07,46,14.80
2016,06,08,07,47,14.70
2016,06,08,07,48,14.50
2016,06,08,07,49,14.30
2016,06,08,07,51,14.10
2016,06,08,07,52,14.00
2016,06,08,07,53,13.90
2016,06,08,07,54,13.80
2016,06,08,07,56,13.70
2016,06,08,07,57,13.70
2016,06,08,07,58,13.70
2016,06,08,07,59,13.70
2016,06,08,08,01,13.70
2016,06,08,08,02,13.70
2016,06,08,08,03,13.70
2016,06,08,08,04,13.70
2016,06,08,08,06,13.70
2016,06,08,08,07,13.70
2016,06,08,08,08,13.80
2016,06,08,08,09,13.80
2016,06,08,08,11,13.90
2016,06,08,08,12,13.90
2016,06,08,08,13,13.90
2016,06,08,08,14,14.00
2016,06,08,08,16,14.10
2016,06,08,08,17,14.20
2016,06,08,08,18,14.20
2016,06,08,08,19,14.20
2016,06,08,08,21,14.40
2016,06,08,08,22,14.50
2016,06,08,08,23,14.60
2016,06,08,08,24,14.60
2016,06,08,08,25,14.70
2016,06,08,08,26,14.80
2016,06,08,08,27,14.80
2016,06,08,08,28,14.80
2016,06,08,08,29,14.90
2016,06,08,08,31,15.00
2016,06,08,08,32,15.10
2016,06,08,08,33,15.10
2016,06,08,08,34,15.10
2016,06,08,08,36,15.10
2016,06,08,08,37,15.10
2016,06,08,08,38,15.10
2016,06,08,08,39,15.10
2016,06,08,08,40,15.00
2016,06,08,08,41,15.00
2016,06,08,08,42,14.90
2016,06,08,08,43,14.90
2016,06,08,08,44,14.80
2016,06,08,08,45,14.80
2016,06,08,08,46,14.80
2016,06,08,08,47,14.70
2016,06,08,08,48,14.70
2016,06,08,08,49,14.60
2016,06,08,08,50,14.60
2016,06,08,08,51,14.60
2016,06,08,08,52,14.50
2016,06,08,08,53,14.50
2016,06,08,08,54,14.40
2016,06,08,08,55,14.40
2016,06,08,08,56,14.40
2016,06,08,08,57,14.30
2016,06,08,08,58,14.20
2016,06,08,08,59,14.20
2016,06,08,09,00,14.20
2016,06,08,09,01,14.10
2016,06,08,09,02,14.10
2016,06,08,09,03,14.00
2016,06,08,09,04,13.90
2016,06,08,09,05,13.90
2016,06,08,09,06,13.90
2016,06,08,09,07,13.80
2016,06,08,09,08,13.80
2016,06,08,09,09,13.80
2016,06,08,09,10,13.80
2016,06,08,09,11,13.70
2016,06,08,09,12,13.70
2016,06,08,09,13,13.70
2016,06,08,09,14,13.70
2016,06,08,09,15,13.70
2016,06,08,09,16,13.70
2016,06,08,09,17,13.60
2016,06,08,09,18,13.60
2016,06,08,09,19,13.60
2016,06,08,09,20,13.50
2016,06,08,09,21,13.50
2016,06,08,09,22,13.50
2016,06,08,09,23,13.50
2016,06,08,09,24,13.50
2016,06,08,09,25,13.50
2016,06,08,09,26,13.40
2016,06,08,09,27,13.40
2016,06,08,09,28,13.50
2016,06,08,09,29,13.50
2016,06,08,09,30,13.50
2016,06,08,09,31,13.50
2016,06,08,09,32,13.50
2016,06,08,09,33,13.60
2016,06,08,09,34,13.60
2016,06,08,09,35,13.60
2016,06,08,09,36,13.70
2016,06,08,09,37,13.70
2016,06,08,09,38,13.70
2016,06,08,09,39,13.70
2016,06,08,09,40,13.70
2016,06,08,09,41,13.70
2016,06,08,09,42,13.80
2016,06,08,09,43,13.80
2016,06,08,09,44,13.80
2016,06,08,09,45,13.80
2016,06,08,09,46,13.80
2016,06,08,09,47,13.90
2016,06,08,09,49,13.90
2016,06,08,09,50,13.90
2016,06,08,09,52,13.90
2016,06,08,09,53,13.90
2016,06,08,09,54,13.90
2016,06,08,09,56,13.90
2016,06,08,09,57,13.90
2016,06,08,09,58,13.90
2016,06,08,09,59,14.00
2016,06,08,10,00,14.00
2016,06,08,10,02,14.10
2016,06,08,10,03,14.10
2016,06,08,10,04,14.20
2016,06,08,10,06,14.20
2016,06,08,10,07,14.20
2016,06,08,10,08,14.30
2016,06,08,10,09,14.40
2016,06,08,10,11,14.50
2016,06,08,10,12,14.50
2016,06,08,10,13,14.60
2016,06,08,10,14,14.60
2016,06,08,10,16,14.70
2016,06,08,10,17,14.70
2016,06,08,10,18,14.80
2016,06,08,10,19,14.80
2016,06,08,10,21,14.90
2016,06,08,10,22,14.90
2016,06,08,10,23,15.00
2016,06,08,10,24,15.00
2016,06,08,10,26,15.20
2016,06,08,10,27,15.20
2016,06,08,10,28,15.30
2016,06,08,10,29,15.30
2016,06,08,10,31,15.40
2016,06,08,10,32,15.40
2016,06,08,10,33,15.50
2016,06,08,10,34,15.50
2016,06,08,10,36,15.50
2016,06,08,10,37,15.50
2016,06,08,10,38,15.50
2016,06,08,10,39,15.50
2016,06,08,10,41,15.50
2016,06,08,10,42,15.50
2016,06,08,10,43,15.50
2016,06,08,10,44,15.50
2016,06,08,10,46,15.50
2016,06,08,10,47,15.50
2016,06,08,10,48,15.40
2016,06,08,10,49,15.40
2016,06,08,10,51,15.40
2016,06,08,10,52,15.30
2016,06,08,10,53,15.30
2016,06,08,10,54,15.30
2016,06,08,10,56,15.30
2016,06,08,10,57,15.30
2016,06,08,10,58,15.30
2016,06,08,10,59,15.30
2016,06,08,11,01,15.30
2016,06,08,11,02,15.30
2016,06,08,11,03,15.30
2016,06,08,11,04,15.30
2016,06,08,11,06,15.40
2016,06,08,11,07,15.40
2016,06,08,11,08,15.40
2016,06,08,11,09,15.40
2016,06,08,11,11,15.50
2016,06,08,11,20,15.40
2016,06,08,11,21,15.30
2016,06,08,11,22,15.30
2016,06,08,11,23,15.30
2016,06,08,11,24,15.30
2016,06,08,11,25,15.30
2016,06,08,11,26,15.20
2016,06,08,11,27,15.20
2016,06,08,11,28,15.20
2016,06,08,11,29,15.20
2016,06,08,11,30,15.10
2016,06,08,11,31,15.10
2016,06,08,11,32,15.10
2016,06,08,11,33,15.10
2016,06,08,11,34,15.00
2016,06,08,11,35,15.00
2016,06,08,11,36,15.00
2016,06,08,11,37,15.00
2016,06,08,11,38,15.00
2016,06,08,11,39,15.00
2016,06,08,11,40,15.00
2016,06,08,11,41,15.00
2016,06,08,11,42,15.00
2016,06,08,11,43,15.00
2016,06,08,11,44,15.00
2016,06,08,11,45,15.00
2016,06,08,11,46,15.00
2016,06,08,11,47,15.10
2016,06,08,11,48,15.10
2016,06,08,11,49,15.10
2016,06,08,11,50,15.10
2016,06,08,11,51,15.10
2016,06,08,11,52,15.10
2016,06,08,11,53,15.10
2016,06,08,11,54,15.10
2016,06,08,11,55,15.20
2016,06,08,11,56,15.20
2016,06,08,11,57,15.20
2016,06,08,11,58,15.30
2016,06,08,11,59,15.30
2016,06,08,12,00,15.30
2016,06,08,12,01,15.30
2016,06,08,12,02,15.30
2016,06,08,12,03,15.30
2016,06,08,12,04,15.30
2016,06,08,12,06,15.30
2016,06,08,12,07,15.30
2016,06,08,12,08,15.30
2016,06,08,12,09,15.30
2016,06,08,12,11,15.40
2016,06,08,12,12,15.40
2016,06,08,12,13,15.40
2016,06,08,12,14,15.40
2016,06,08,12,16,15.50
2016,06,08,12,17,15.50
2016,06,08,12,18,15.50
2016,06,08,12,19,15.60
2016,06,08,12,21,15.60
2016,06,08,12,22,15.60
2016,06,08,12,23,15.60
2016,06,08,12,24,15.70
2016,06,08,12,26,15.70
2016,06,08,12,27,15.70
2016,06,08,12,28,15.70
2016,06,08,12,29,15.70
2016,06,08,12,31,15.70
2016,06,08,12,32,15.70
2016,06,08,12,33,15.70
2016,06,08,12,34,15.70
2016,06,08,12,36,15.70
2016,06,08,12,37,15.70
2016,06,08,12,38,15.70
2016,06,08,12,39,15.70
2016,06,08,12,41,15.60
2016,06,08,12,42,15.60
2016,06,08,12,43,15.60
2016,06,08,12,44,15.60
2016,06,08,12,46,15.60
2016,06,08,12,47,15.60
2016,06,08,12,48,15.60
2016,06,08,12,49,15.60
2016,06,08,12,51,15.50
2016,06,08,12,52,15.50
2016,06,08,12,53,15.50
2016,06,08,12,54,15.50
2016,06,08,12,56,15.40
2016,06,08,12,57,15.40
2016,06,08,12,58,15.30
2016,06,08,12,59,15.30
2016,06,08,13,01,15.30
2016,06,08,13,02,15.30
2016,06,08,13,03,15.30
2016,06,08,13,04,15.20
2016,06,08,13,06,15.20
2016,06,08,13,07,15.20
2016,06,08,13,08,15.20
2016,06,08,13,09,15.30
2016,06,08,13,11,15.30
2016,06,08,13,12,15.30
2016,06,08,13,13,15.30
2016,06,08,13,14,15.40
2016,06,08,13,16,15.60
2016,06,08,13,17,15.60
2016,06,08,13,18,15.70
2016,06,08,13,19,15.80
2016,06,08,13,21,15.80
2016,06,08,13,22,15.90
2016,06,08,13,23,16.10
2016,06,08,13,24,16.10
2016,06,08,13,25,16.10
2016,06,08,13,26,16.20
2016,06,08,13,27,16.30
2016,06,08,13,28,16.40
2016,06,08,13,29,16.40
2016,06,08,13,31,16.40
2016,06,08,13,32,16.60
2016,06,08,13,33,16.70
2016,06,08,13,34,16.70
2016,06,08,13,36,16.70
2016,06,08,13,37,16.70
2016,06,08,13,38,16.80
2016,06,08,13,39,16.80
2016,06,08,13,40,16.90
2016,06,08,13,41,16.90
2016,06,08,13,42,16.90
2016,06,08,13,43,16.90
2016,06,08,13,44,17.00
2016,06,08,13,45,17.00
2016,06,08,13,46,17.00
2016,06,08,13,47,17.00
2016,06,08,13,48,17.00
2016,06,08,13,49,17.00
2016,06,08,13,50,17.00
2016,06,08,13,51,17.00
2016,06,08,13,52,17.00
2016,06,08,13,53,17.00
2016,06,08,13,54,17.00
2016,06,08,13,55,17.00
2016,06,08,13,56,17.00
2016,06,08,13,57,16.90
2016,06,08,13,58,16.90
2016,06,08,13,59,16.90
2016,06,08,14,00,16.90
2016,06,08,14,01,16.90
2016,06,08,14,02,16.80
2016,06,08,14,03,16.80
2016,06,08,14,04,16.80
2016,06,08,14,05,16.80
2016,06,08,14,06,16.70
2016,06,08,14,07,16.70
2016,06,08,14,08,16.70
2016,06,08,14,09,16.70
2016,06,08,14,10,16.70
2016,06,08,14,11,16.70
2016,06,08,14,12,16.70
2016,06,08,14,13,16.70
2016,06,08,14,14,16.70
2016,06,08,14,15,16.70
2016,06,08,14,16,16.70
2016,06,08,14,17,16.70
2016,06,08,14,18,16.70
2016,06,08,14,19,16.70
2016,06,08,14,20,16.70
2016,06,08,14,21,16.70
2016,06,08,14,22,16.70
2016,06,08,14,23,16.70
2016,06,08,14,24,16.70
2016,06,08,14,25,16.70
2016,06,08,14,26,16.70
2016,06,08,14,27,16.70
2016,06,08,14,28,16.70
2016,06,08,14,29,16.70
2016,06,08,14,30,16.70
2016,06,08,14,31,16.70
2016,06,08,14,32,16.70
2016,06,08,14,33,16.70
2016,06,08,14,34,16.80
2016,06,08,14,35,16.80
2016,06,08,14,36,16.70
2016,06,08,14,37,16.70
2016,06,08,14,38,16.70
2016,06,08,14,39,16.70
2016,06,08,14,40,16.70
2016,06,08,14,41,16.70
2016,06,08,14,42,16.70
2016,06,08,14,43,16.70
2016,06,08,14,44,16.60
2016,06,08,14,45,16.60
2016,06,08,14,46,16.40
2016,06,08,14,47,16.40
2016,06,08,14,48,16.40
2016,06,08,14,49,16.30
2016,06,08,14,50,16.30
2016,06,08,14,52,16.20
2016,06,08,14,53,16.20
2016,06,08,14,54,16.20
2016,06,08,14,56,16.20
2016,06,08,14,57,16.20
2016,06,08,14,58,16.20
2016,06,08,14,59,16.20
2016,06,08,15,00,16.20
2016,06,08,15,02,16.20
2016,06,08,15,03,16.20
2016,06,08,15,04,16.20
2016,06,08,15,06,16.20
2016,06,08,15,07,16.20
2016,06,08,15,08,16.20
2016,06,08,15,09,16.20
2016,06,08,15,11,16.30
2016,06,08,15,12,16.30
2016,06,08,15,13,16.30
2016,06,08,15,14,16.30
2016,06,08,15,16,16.40
2016,06,08,15,17,16.40
2016,06,08,15,18,16.40
2016,06,08,15,19,16.40
2016,06,08,15,21,16.40
2016,06,08,15,22,16.40
2016,06,08,15,23,16.60
2016,06,08,15,24,16.60
2016,06,08,15,26,16.70
2016,06,08,15,27,16.70
2016,06,08,15,28,16.70
2016,06,08,15,29,16.70
2016,06,08,15,31,16.70
2016,06,08,15,32,16.80
2016,06,08,15,33,16.80
2016,06,08,15,34,16.80
2016,06,08,15,36,16.90
2016,06,08,15,37,17.00
2016,06,08,15,38,17.00
2016,06,08,15,39,17.10
2016,06,08,15,41,17.20
2016,06,08,15,42,17.20
2016,06,08,15,43,17.30
2016,06,08,15,44,17.30
2016,06,08,15,46,17.30
2016,06,08,15,47,17.40
2016,06,08,15,48,17.40
2016,06,08,15,49,17.50
2016,06,08,15,51,17.60
2016,06,08,15,52,17.60
2016,06,08,15,53,17.70
2016,06,08,15,54,17.80
2016,06,08,15,56,17.90
2016,06,08,15,57,17.90
2016,06,08,15,58,17.90
2016,06,08,15,59,17.90
2016,06,08,16,01,18.10
2016,06,08,16,02,18.20
2016,06,08,16,03,18.20
2016,06,08,16,04,18.20
2016,06,08,16,06,18.30
2016,06,08,16,07,18.30
2016,06,08,16,08,18.40
2016,06,08,16,09,18.50
2016,06,08,16,11,18.60
2016,06,08,16,12,18.70
2016,06,08,16,13,18.70
2016,06,08,16,14,18.80
2016,06,08,16,15,18.80
2016,06,08,16,16,18.90
2016,06,08,16,17,18.90
2016,06,08,16,18,18.90
2016,06,08,16,19,18.90
2016,06,08,16,21,19.10
2016,06,08,16,22,19.10
2016,06,08,16,23,19.20
2016,06,08,16,24,19.30
2016,06,08,16,25,19.40
2016,06,08,16,26,19.50
2016,06,08,16,27,19.60
2016,06,08,16,28,19.60
2016,06,08,16,29,19.70
2016,06,08,16,30,19.80
2016,06,08,16,31,19.80
2016,06,08,16,32,19.80
2016,06,08,16,33,19.90
2016,06,08,16,34,19.90
2016,06,08,16,35,19.90
2016,06,08,16,36,19.90
2016,06,08,16,37,19.90
2016,06,08,16,38,19.90
2016,06,08,16,39,20.10
2016,06,08,16,40,20.10
2016,06,08,16,41,20.10
2016,06,08,17,20,19.90
2016,06,08,17,21,19.90
2016,06,08,17,22,19.90
2016,06,08,17,23,19.80
2016,06,08,17,24,19.80
2016,06,08,17,25,19.80
2016,06,08,17,26,19.80
2016,06,08,17,27,19.80
2016,06,08,17,28,19.80
2016,06,08,17,29,19.80
2016,06,08,18,20,18.90
2016,06,08,18,21,18.80
2016,06,08,18,22,18.70
2016,06,08,18,23,18.60
2016,06,08,18,24,18.60
2016,06,08,18,25,18.60
2016,06,08,18,26,18.50
2016,06,08,18,27,18.40
2016,06,08,18,28,18.30
2016,06,08,18,29,18.30
2016,06,08,19,20,17.30
2016,06,08,19,21,17.30
2016,06,08,19,22,17.30
2016,06,08,19,23,17.30
2016,06,08,19,24,17.30
2016,06,08,19,25,17.30
2016,06,08,19,26,17.30
2016,06,08,19,27,17.20
2016,06,08,19,28,17.20
2016,06,08,19,29,17.10
2016,06,08,19,30,17.10
2016,06,08,19,31,17.00
2016,06,08,19,32,17.00
2016,06,08,19,33,17.00
2016,06,08,19,34,17.00
2016,06,08,19,35,17.00
2016,06,08,19,36,16.90
2016,06,08,19,37,16.90
2016,06,08,19,38,16.90
2016,06,08,19,39,16.80
2016,06,08,19,40,16.80
2016,06,08,19,41,16.70
2016,06,08,19,42,16.70
2016,06,08,19,43,16.70
2016,06,08,19,44,16.70
2016,06,08,19,45,16.60
2016,06,08,19,46,16.60
2016,06,08,19,47,16.40
2016,06,08,19,48,16.40
2016,06,08,19,49,16.40
2016,06,08,19,50,16.30
2016,06,08,19,51,16.30
2016,06,08,19,52,16.20
2016,06,08,19,53,16.10
2016,06,08,19,54,16.10
2016,06,08,19,55,16.10
2016,06,08,19,56,16.10
2016,06,08,19,57,15.90
2016,06,08,19,58,15.90
2016,06,08,19,59,15.90
2016,06,08,20,00,15.80
2016,06,08,20,01,15.80
2016,06,08,20,02,15.80
2016,06,08,20,03,15.80
2016,06,08,20,04,15.80
2016,06,08,20,06,15.80
2016,06,08,20,07,15.80
2016,06,08,20,08,15.80
2016,06,08,20,09,15.80
2016,06,08,20,11,15.70
2016,06,08,20,12,15.70
2016,06,08,20,13,15.70
2016,06,08,20,14,15.60
2016,06,08,20,16,15.60
2016,06,08,20,17,15.60
2016,06,08,20,18,15.50
2016,06,08,20,19,15.50
2016,06,08,20,21,15.40
2016,06,08,20,22,15.40
2016,06,08,20,23,15.40
2016,06,08,20,24,15.40
2016,06,08,20,26,15.30
2016,06,08,20,27,15.30
2016,06,08,20,28,15.30
2016,06,08,20,29,15.30
2016,06,08,20,31,15.30
2016,06,08,20,32,15.30
2016,06,08,20,33,15.30
2016,06,08,20,34,15.30
2016,06,08,20,36,15.20
2016,06,08,20,37,15.20
2016,06,08,20,38,15.20
2016,06,08,20,39,15.20
2016,06,08,20,41,15.20
2016,06,08,20,42,15.20
2016,06,08,20,43,15.20
2016,06,08,20,44,15.20
2016,06,08,20,46,15.10
2016,06,08,20,47,15.10
2016,06,08,20,48,15.10
2016,06,08,20,49,15.10
2016,06,08,20,51,15.10
2016,06,08,20,52,15.10
2016,06,08,20,53,15.10
2016,06,08,20,54,15.10
2016,06,08,20,56,15.00
2016,06,08,20,57,15.00
2016,06,08,20,58,15.00
2016,06,08,20,59,15.00
2016,06,08,21,01,15.00
2016,06,08,21,02,15.00
2016,06,08,21,03,15.00
2016,06,08,21,04,14.90
2016,06,08,21,06,14.90
2016,06,08,21,07,14.90
2016,06,08,21,08,14.90
2016,06,08,21,09,14.90
2016,06,08,21,11,14.90
2016,06,08,21,12,14.90
2016,06,08,21,13,14.90
2016,06,08,21,14,14.80
2016,06,08,21,15,14.80
2016,06,08,21,16,14.80
2016,06,08,21,17,14.80
2016,06,08,21,18,14.80
2016,06,08,21,19,14.80
2016,06,08,21,20,14.80
2016,06,08,21,21,14.80
2016,06,08,21,22,14.80
2016,06,08,21,23,14.80
2016,06,08,21,24,14.80
2016,06,08,21,25,14.80
2016,06,08,21,26,14.80
2016,06,08,21,27,14.80
2016,06,08,21,28,14.80
2016,06,08,21,29,14.70
2016,06,08,21,30,14.70
2016,06,08,21,31,14.70
2016,06,08,21,32,14.70
2016,06,08,21,33,14.70
2016,06,08,21,34,14.70
2016,06,08,21,35,14.60
2016,06,08,21,36,14.60
2016,06,08,21,37,14.60
2016,06,08,21,38,14.60
2016,06,08,21,39,14.50
2016,06,08,21,40,14.50
2016,06,08,21,41,14.50
2016,06,08,21,42,14.50
2016,06,08,21,43,14.40
2016,06,08,21,44,14.40
2016,06,08,21,45,14.40
2016,06,08,21,46,14.40
2016,06,08,21,47,14.30
2016,06,08,21,48,14.30
2016,06,08,21,49,14.30
2016,06,08,21,50,14.30
2016,06,08,21,51,14.30
2016,06,08,21,52,14.30
2016,06,08,21,53,14.20
2016,06,08,21,54,14.20
2016,06,08,21,55,14.20
2016,06,08,21,56,14.20
2016,06,08,21,57,14.20
2016,06,08,21,58,14.20
2016,06,08,21,59,14.20
2016,06,08,22,00,14.20
2016,06,08,22,01,14.20
2016,06,08,22,02,14.20
2016,06,08,22,03,14.20
2016,06,08,22,04,14.20
2016,06,08,22,05,14.10
2016,06,08,22,06,14.10
2016,06,08,22,07,14.10
2016,06,08,22,08,14.10
2016,06,08,22,09,14.10
2016,06,08,22,10,14.10
2016,06,08,22,11,14.10
2016,06,08,22,12,14.00
2016,06,08,22,13,14.00
2016,06,08,22,14,14.00
2016,06,08,22,15,14.00
2016,06,08,22,16,14.00
2016,06,08,22,17,14.00
2016,06,08,22,18,14.00
2016,06,08,22,19,14.00
2016,06,08,22,20,14.00
2016,06,08,22,21,14.00
2016,06,08,22,22,14.00
2016,06,08,22,23,13.90
2016,06,08,22,24,13.90
2016,06,08,22,26,13.90
2016,06,08,22,27,13.90
2016,06,08,22,28,13.90
2016,06,08,22,29,13.90
2016,06,08,22,31,13.90
2016,06,08,22,32,13.90
2016,06,08,22,33,13.80
2016,06,08,22,34,13.80
2016,06,08,22,36,13.80
2016,06,08,22,37,13.80
2016,06,08,22,38,13.80
2016,06,08,22,39,13.80
2016,06,08,22,41,13.80
2016,06,08,22,42,13.80
2016,06,08,22,43,13.70
2016,06,08,22,44,13.70
2016,06,08,22,46,13.70
2016,06,08,22,47,13.70
2016,06,08,22,48,13.70
2016,06,08,22,49,13.70
2016,06,08,22,51,13.70
2016,06,08,22,52,13.70